STARLINK-11185, 62588

Orbit data source: Space-Track

STARLINK-11185, 62588 is a payload satellite owned by SpaceX/Seattle (US) in LEO that was launched on Mon, 13 Jan 2025 UTC via an FALCON 9 launch vehicle from the Air Force Eastern Test Range (AFETR). Payload-class satellites include a variety of spacecraft equipped with specific instruments for various scientific and technological missions. These include communications satellites like Starlink; space stations such as the ISS; scientific satellites like the Hubble; Earth observation satellites from companies like Planet Labs, Umbra, and HawkEye 360; GPS; miniature CubeSats for education and research; and military/defense satellites.

Loading next visibility...
Identifier
62588, 2025-008B
Orbit
LEO
Last TLE update
5 hours ago
Origin
Manufacturer
SpaceX/Seattle
Mission
Operational Commercial Communications
Bus & Motor
STARLINK V2M, Unknown motor
Mass
730 kg wet, ~700 kg dry
Launch date (UTC)
2025-01-13 (6 months ago)
Launch vehicle
FALCON 9
Launch site
Air Force Eastern Test Range (AFETR)
Object type
Payload
Rocket body
Debris
Shape & HBR
Box + 2 Pan, 29 m
Radar Cross Section
36.964 m², Large (>1 m²)

Expand to show TLE details & history

TLE from 5 hours ago
0 STARLINK-11185
1 62588U 25008B   25182.19749439  .00197886  00000-0  15092-2 0  9996
2 62588  43.0006 201.8454 0001366 260.5710  99.5003 15.70840613 27667
Epoch: 2025-07-01T04:44Z
TLE epoch observation values (Epoch: 2025-07-01T04:44:23.515Z)
Latitude
-0.00003°
Longitude
-148.74901°
Altitude
356.416 km
Speed
7.697 km/s
True Right ascension
13h 27m 22s
True Declination
0° 00' 00"
Sunlit
Object was in daylight at epoch
Visualization orbit readout
Latitude
26.68585°
Longitude
-2.45739°
Altitude
356.822 km
Speed
7.699 km/s
Apparent Right ascension
02h 42m 56s
Apparent Declination
-22° 14' 15"
Sunlit
Object is in daylight
Visualization observer readout
Local Sidereal Time
21:32:45
Azimuth
114.837° SE
Elevation
-5.149°
Doppler factor
1
Orbital elements
Apogee altitude
359.395 km
Perigee altitude
357.555 km
Semi-major axis
6,736.612 km
Eccentricity
0.00014
Inclination
43.0006°
RAAN
201.8454°
Arg. of periapsis
260.571°
True anomaly
Unknown
Mean anomaly
99.5003°
Eccentric anomaly
Unknown
Mean motion
3.92537 °/min
Orbital period
91.71 mins
BSTAR
0.0015092
Loading maneuver chart data...
Loading SW <> Apogee altitude chart data...
Loading historical data...
Loading historical data...
Loading historical data...
Loading historical data...
Loading historical data...
Loading historical data...
Loading historical data...

STARLINK-11185 Visibility forecast

Observer location: undefined°, undefined°

Span
Click to sort rows by Start time (UTC) header in descending order
Start Az.
Max El. time (UTC)
Max El. Az.
Max El.
End time (UTC)
End Az.
4 mins2025-07-02 05:25:23.673Z243.018° WSW2025-07-02 05:26:23.673Z206.709° SW44.148°2025-07-02 05:29:23.673Z73.145° E
4 mins2025-07-02 07:01:23.673Z297.96° NW2025-07-02 07:02:23.673Z333.501° NNW33.289°2025-07-02 07:05:23.673Z70.413° E
4 mins2025-07-02 08:37:23.673Z295.698° NW2025-07-02 08:39:23.673Z60.738° ENE40.497°2025-07-02 08:41:23.673Z96.812° ESE
|